This is the latest recevied weather packets stored in our database for station/object NC4M. If no packets are shown the sender has not sent any weather packets the latest 10 day(s).
| Time | Temp. | Humidity | Pressure | Rain* | Wind** | Luminosity | Snow |
|---|---|---|---|---|---|---|---|
| 1788039722 | 31.67° C | 42% | 1017.5 hPa | 0 mm | - | 345 W/m² | - |
| 1788039417 | 31.67° C | 47% | 1017.5 hPa | 0 mm | - | 387 W/m² | - |
| 1788039113 | 31.67° C | 47% | 1017.7 hPa | 0 mm | - | 426 W/m² | - |
| 1788038809 | 32.22° C | 44% | 1017.6 hPa | 0 mm | - | 358 W/m² | - |
| 1788038508 | 32.22° C | 46% | 1017.7 hPa | 0 mm | - | 388 W/m² | - |
| 1788038207 | 32.22° C | 43% | 1017.8 hPa | 0 mm | - | 494 W/m² | - |
| 1788037902 | 32.78° C | 43% | 1017.9 hPa | 0 mm | - | 461 W/m² | - |
| 1788037597 | 32.22° C | 44% | 1017.9 hPa | 0 mm | - | 598 W/m² | - |
| 1788037292 | 32.22° C | 44% | 1018.1 hPa | 0 mm | - | 611 W/m² | - |
| 1788036992 | 31.67° C | 45% | 1018.1 hPa | 0 mm | - | 559 W/m² | - |
| 1788036689 | 31.67° C | 46% | 1018.1 hPa | 0 mm | - | 516 W/m² | - |
| 1788036384 | 31.67° C | 43% | 1018.2 hPa | 0 mm | - | 360 W/m² | - |
| 1788036079 | 32.78° C | 41% | 1018.3 hPa | 0 mm | - | 249 W/m² | - |
| 1788035778 | 32.78° C | 42% | 1018.2 hPa | 0 mm | - | 456 W/m² | - |
| 1788035474 | 32.22° C | 44% | 1018.3 hPa | 0 mm | - | 484 W/m² | - |
| 1788035169 | 32.22° C | 43% | 1018.3 hPa | 0 mm | - | 364 W/m² | - |
| 1788034865 | 32.22° C | 39% | 1018.5 hPa | 0 mm | - | 258 W/m² | - |
| 1788034561 | 32.22° C | 43% | 1018.4 hPa | 0 mm | - | 253 W/m² | - |
| 1788034257 | 32.22° C | 42% | 1018.5 hPa | 0 mm | - | 286 W/m² | - |
| 1788033956 | 31.67° C | 41% | 1018.6 hPa | 0 mm | - | 289 W/m² | - |
| 1788033651 | 32.22° C | 42% | 1018.6 hPa | 0 mm | - | 253 W/m² | - |
| 1788033350 | 31.67° C | 43% | 1018.5 hPa | 0 mm | - | 243 W/m² | - |
| 1788033046 | 32.22° C | 44% | 1018.6 hPa | 0 mm | - | 299 W/m² | - |
| 1788032745 | 32.22° C | 42% | 1018.6 hPa | 0 mm | - | 248 W/m² | - |
| 1788032440 | 32.22° C | 45% | 1018.9 hPa | 0 mm | - | 294 W/m² | - |
* Rain latest hour (hover to see other rain measurements)
** Current wind speed in m/s (hover to see current wind gust speed)